Find Starlink 31727

NORAD ID: 59638 Int'l Des: 2024-082 Owner: SPXS Country: US Constellation: starlink operational
LEOCIRCULAR

現在のビュー

3D地球を読み込み中...

About Starlink 31727

Starlink 31727 (NORAD 59638) is a starlink constellation satellite (v2 mini) launched May 3, 2024 by SPXS of US. It operates in LEO, CIRCULAR orbit with a mass of 730.00 kg.

次回通過

Passes for default location (London). Set your location on the main map for personalized predictions.

高度履歴

Loading altitude history...

軌道要素

1 59638U 24082H 26255.14743811 .00000460 00000-0 26221-4 0 9993
2 59638 43.0039 167.1892 0001017 271.1609 88.9126 15.27580554133374
Epoch: Sep 12, 2026 • Age: 23 hours

現在のステータス

高度 482.8 km
遠地点 / 近地点 N/A
速度 7.63 km/s
衛星直下点 1.16°N, 45.77°W
打ち上げ日 May 3, 2024
運用期間 2.3 years
タイプ internet

技術仕様

分類 Payload
質量 730.00 kg
乾燥質量 700.00 kg
総質量 730.00 kg
長さ 0.30 m
直径 4.10 m
スパン 29.00 m
形状 Box + pan
製造者 SPXS
バスタイプ Starlink V2M
フェーズステータス In Orbit
所有者/国 SPXS/US

Most Searched